SWN25Q CYYT-CYYR

Flight info

Callsign SWN25Q
Flight time N/A
Altitude 36000
Route YQX DCT YAY DCT YYR
Aircraft B738/M-SDE2E3FGHIRWXY/LB1

Departure

Time 2026-05-06 12:45
Airport St. John's International Airport (CYYT)

Arrival

Time N/A
Airport Goose Bay Airport (CYYR)
Time Latitude Longitude Altitude Speed Heading
2026-05-06 12:07 47.61118 -52.74047 448 ft 0 kts 266°
2026-05-06 12:38 47.61118 -52.74045 448 ft 2 kts 266°
2026-05-06 12:38 47.61119 -52.74008 448 ft 4 kts 278°
2026-05-06 12:39 47.61111 -52.73972 448 ft 4 kts 315°
2026-05-06 12:39 47.61091 -52.73957 448 ft 2 kts
2026-05-06 12:39 47.61085 -52.73958 448 ft 0 kts
2026-05-06 12:41 47.61100 -52.73956 448 ft 5 kts
2026-05-06 12:41 47.61151 -52.73957 448 ft 10 kts 357°
2026-05-06 12:42 47.61228 -52.73967 448 ft 11 kts 353°
2026-05-06 12:42 47.61266 -52.73907 447 ft 12 kts 100°
2026-05-06 12:42 47.61313 -52.73829 433 ft 13 kts 355°
2026-05-06 12:42 47.61434 -52.73839 421 ft 24 kts 357°
2026-05-06 12:43 47.61612 -52.73854 432 ft 25 kts 356°
2026-05-06 12:43 47.61778 -52.73871 434 ft 23 kts 355°
2026-05-06 12:43 47.61934 -52.73888 441 ft 25 kts 356°
2026-05-06 12:43 47.62112 -52.73904 436 ft 27 kts 356°
2026-05-06 12:44 47.62289 -52.73923 432 ft 25 kts 355°
2026-05-06 12:44 47.62437 -52.73932 428 ft 15 kts
2026-05-06 12:44 47.62516 -52.73964 430 ft 9 kts 277°
2026-05-06 12:44 47.62516 -52.73971 439 ft 0 kts 273°
2026-05-06 12:45 47.62506 -52.74213 434 ft 57 kts 266°
2026-05-06 12:45 47.62461 -52.75114 446 ft 116 kts 264°
2026-05-06 12:45 47.62473 -52.77778 1723 ft 120 kts 266°
2026-05-06 12:46 47.62559 -52.78892 2592 ft 108 kts 264°
2026-05-06 12:46 47.62852 -52.80101 2823 ft 157 kts 298°
2026-05-06 12:46 47.63754 -52.81284 3084 ft 185 kts 304°
2026-05-06 12:46 47.64776 -52.82627 3317 ft 205 kts 306°
2026-05-06 12:47 47.65869 -52.84054 3670 ft 221 kts 307°
2026-05-06 12:47 47.67074 -52.85647 4083 ft 240 kts 308°
2026-05-06 12:47 47.68343 -52.87298 4832 ft 244 kts 310°
2026-05-06 12:47 47.69632 -52.88974 5496 ft 249 kts 310°
2026-05-06 12:48 47.70946 -52.90691 6195 ft 254 kts 311°
2026-05-06 12:48 47.72282 -52.92441 6895 ft 258 kts 311°
2026-05-06 12:48 47.73631 -52.94213 7640 ft 260 kts 311°
2026-05-06 12:48 47.74988 -52.96000 8435 ft 261 kts 312°
2026-05-06 12:49 47.76352 -52.97800 9224 ft 264 kts 312°
2026-05-06 12:49 47.77726 -52.99616 10065 ft 265 kts 312°
2026-05-06 12:49 47.79103 -53.01445 10620 ft 277 kts 312°
2026-05-06 12:49 47.80599 -53.03446 10798 ft 301 kts 312°
2026-05-06 12:50 47.82219 -53.05615 10959 ft 324 kts 313°